Year,Month,Day,Hour,Minute,Value (Times are PST for temperature in C)
2016,06,20,00,00,9.30
2016,06,20,00,01,9.30
2016,06,20,00,02,9.30
2016,06,20,00,03,9.30
2016,06,20,00,04,9.30
2016,06,20,00,05,9.30
2016,06,20,00,06,9.30
2016,06,20,00,07,9.30
2016,06,20,00,08,9.30
2016,06,20,00,09,9.30
2016,06,20,00,10,9.30
2016,06,20,00,11,9.30
2016,06,20,00,12,9.20
2016,06,20,00,13,9.20
2016,06,20,00,14,9.20
2016,06,20,00,15,9.20
2016,06,20,00,16,9.20
2016,06,20,00,17,9.20
2016,06,20,00,18,9.20
2016,06,20,00,19,9.20
2016,06,20,00,20,9.20
2016,06,20,00,21,9.20
2016,06,20,00,22,9.20
2016,06,20,00,23,9.20
2016,06,20,00,24,9.20
2016,06,20,00,25,9.20
2016,06,20,00,26,9.20
2016,06,20,00,27,9.20
2016,06,20,00,28,9.20
2016,06,20,00,29,9.20
2016,06,20,00,30,9.20
2016,06,20,00,31,9.20
2016,06,20,00,32,9.20
2016,06,20,00,33,9.10
2016,06,20,00,34,9.10
2016,06,20,00,35,9.10
2016,06,20,00,36,9.10
2016,06,20,00,37,9.10
2016,06,20,00,38,9.10
2016,06,20,00,39,9.20
2016,06,20,00,40,9.20
2016,06,20,00,41,9.20
2016,06,20,00,42,9.20
2016,06,20,00,43,9.20
2016,06,20,00,44,9.20
2016,06,20,00,45,9.20
2016,06,20,00,46,9.20
2016,06,20,00,47,9.20
2016,06,20,00,48,9.20
2016,06,20,00,49,9.20
2016,06,20,00,50,9.20
2016,06,20,00,51,9.20
2016,06,20,00,52,9.20
2016,06,20,00,53,9.20
2016,06,20,00,54,9.20
2016,06,20,00,55,9.30
2016,06,20,00,56,9.30
2016,06,20,00,57,9.30
2016,06,20,00,58,9.30
2016,06,20,00,59,9.30
2016,06,20,01,00,9.30
2016,06,20,01,01,9.30
2016,06,20,01,02,9.30
2016,06,20,01,03,9.30
2016,06,20,01,04,9.30
2016,06,20,01,05,9.30
2016,06,20,01,06,9.30
2016,06,20,01,07,9.30
2016,06,20,01,08,9.30
2016,06,20,01,09,9.30
2016,06,20,01,10,9.30
2016,06,20,01,11,9.30
2016,06,20,01,12,9.30
2016,06,20,01,13,9.30
2016,06,20,01,14,9.30
2016,06,20,01,15,9.30
2016,06,20,01,16,9.30
2016,06,20,01,17,9.30
2016,06,20,01,18,9.30
2016,06,20,01,19,9.30
2016,06,20,01,20,9.30
2016,06,20,01,21,9.30
2016,06,20,01,22,9.30
2016,06,20,01,23,9.30
2016,06,20,01,24,9.20
2016,06,20,01,25,9.20
2016,06,20,01,26,9.20
2016,06,20,01,27,9.20
2016,06,20,01,28,9.20
2016,06,20,01,29,9.20
2016,06,20,01,30,9.20
2016,06,20,01,31,9.20
2016,06,20,01,32,9.20
2016,06,20,01,33,9.20
2016,06,20,01,34,9.20
2016,06,20,01,35,9.20
2016,06,20,01,36,9.20
2016,06,20,01,37,9.20
2016,06,20,01,38,9.20
2016,06,20,01,39,9.20
2016,06,20,01,40,9.20
2016,06,20,01,41,9.20
2016,06,20,01,42,9.20
2016,06,20,01,43,9.20
2016,06,20,01,44,9.20
2016,06,20,01,45,9.20
2016,06,20,01,46,9.10
2016,06,20,01,47,9.10
2016,06,20,01,48,9.10
2016,06,20,01,49,9.10
2016,06,20,01,50,9.10
2016,06,20,01,51,9.10
2016,06,20,01,52,9.10
2016,06,20,01,53,9.10
2016,06,20,01,54,9.10
2016,06,20,01,55,9.00
2016,06,20,01,56,9.00
2016,06,20,01,57,9.00
2016,06,20,01,58,9.00
2016,06,20,01,59,9.00
2016,06,20,02,00,9.00
2016,06,20,02,01,9.00
2016,06,20,02,02,9.00
2016,06,20,02,03,9.00
2016,06,20,02,04,9.00
2016,06,20,02,05,9.00
2016,06,20,02,06,8.90
2016,06,20,02,07,8.90
2016,06,20,02,08,8.90
2016,06,20,02,09,8.90
2016,06,20,02,10,8.90
2016,06,20,02,11,8.90
2016,06,20,02,12,8.90
2016,06,20,02,13,9.00
2016,06,20,02,14,9.00
2016,06,20,02,15,9.00
2016,06,20,02,16,9.00
2016,06,20,02,17,9.00
2016,06,20,02,18,9.00
2016,06,20,02,19,9.00
2016,06,20,02,20,9.00
2016,06,20,02,21,8.90
2016,06,20,02,22,8.90
2016,06,20,02,23,8.90
2016,06,20,02,24,8.90
2016,06,20,02,25,8.90
2016,06,20,02,26,8.90
2016,06,20,02,27,8.90
2016,06,20,02,28,8.90
2016,06,20,02,29,8.90
2016,06,20,02,30,9.00
2016,06,20,02,31,9.00
2016,06,20,02,32,9.00
2016,06,20,02,33,9.00
2016,06,20,02,34,9.00
2016,06,20,02,35,9.10
2016,06,20,02,36,9.10
2016,06,20,02,37,9.10
2016,06,20,02,38,9.10
2016,06,20,02,39,9.00
2016,06,20,02,40,9.10
2016,06,20,02,41,9.10
2016,06,20,02,42,9.10
2016,06,20,02,43,9.00
2016,06,20,02,44,9.00
2016,06,20,02,45,9.00
2016,06,20,02,46,9.00
2016,06,20,02,47,9.00
2016,06,20,02,48,9.00
2016,06,20,02,49,9.00
2016,06,20,02,50,9.00
2016,06,20,02,51,9.00
2016,06,20,02,52,9.00
2016,06,20,02,53,9.00
2016,06,20,02,54,9.00
2016,06,20,02,55,9.00
2016,06,20,02,56,9.00
2016,06,20,02,57,9.00
2016,06,20,02,58,9.00
2016,06,20,02,59,9.00
2016,06,20,03,00,9.00
2016,06,20,03,01,9.00
2016,06,20,03,02,9.10
2016,06,20,03,06,9.20
2016,06,20,03,07,9.20
2016,06,20,03,08,9.20
2016,06,20,03,09,9.20
2016,06,20,03,10,9.20
2016,06,20,03,11,9.20
2016,06,20,03,12,9.30
2016,06,20,03,13,9.30
2016,06,20,03,14,9.30
2016,06,20,03,15,9.40
2016,06,20,03,16,9.40
2016,06,20,03,17,9.40
2016,06,20,03,18,9.40
2016,06,20,03,19,9.50
2016,06,20,03,20,9.50
2016,06,20,03,21,9.60
2016,06,20,03,22,9.60
2016,06,20,03,23,9.60
2016,06,20,03,24,9.70
2016,06,20,03,25,9.70
2016,06,20,03,26,9.70
2016,06,20,03,27,9.70
2016,06,20,03,28,9.80
2016,06,20,03,29,9.80
2016,06,20,03,30,9.80
2016,06,20,03,31,9.80
2016,06,20,03,32,9.80
2016,06,20,03,33,9.80
2016,06,20,03,34,9.80
2016,06,20,03,35,9.90
2016,06,20,03,36,9.90
2016,06,20,03,37,9.90
2016,06,20,03,38,9.90
2016,06,20,03,39,10.00
2016,06,20,03,40,10.00
2016,06,20,03,41,10.00
2016,06,20,03,42,10.10
2016,06,20,03,43,10.10
2016,06,20,03,44,10.10
2016,06,20,03,45,10.10
2016,06,20,03,46,10.20
2016,06,20,03,47,10.20
2016,06,20,03,48,10.20
2016,06,20,03,49,10.30
2016,06,20,03,50,10.30
2016,06,20,03,51,10.40
2016,06,20,03,52,10.40
2016,06,20,03,53,10.50
2016,06,20,03,54,10.50
2016,06,20,03,55,10.50
2016,06,20,03,56,10.60
2016,06,20,03,57,10.60
2016,06,20,03,58,10.60
2016,06,20,03,59,10.60
2016,06,20,04,00,10.60
2016,06,20,04,01,10.60
2016,06,20,04,02,10.70
2016,06,20,04,03,10.70
2016,06,20,04,04,10.70
2016,06,20,04,05,10.70
2016,06,20,04,06,10.70
2016,06,20,04,07,10.70
2016,06,20,04,08,10.70
2016,06,20,04,09,10.70
2016,06,20,04,10,10.70
2016,06,20,04,11,10.70
2016,06,20,04,12,10.70
2016,06,20,04,13,10.70
2016,06,20,04,14,10.70
2016,06,20,04,15,10.70
2016,06,20,04,16,10.70
2016,06,20,04,17,10.70
2016,06,20,04,18,10.70
2016,06,20,04,19,10.70
2016,06,20,04,20,10.70
2016,06,20,04,21,10.60
2016,06,20,04,22,10.60
2016,06,20,04,23,10.60
2016,06,20,04,24,10.60
2016,06,20,04,25,10.70
2016,06,20,04,26,10.70
2016,06,20,04,27,10.60
2016,06,20,04,28,10.60
2016,06,20,04,29,10.60
2016,06,20,04,30,10.60
2016,06,20,04,31,10.60
2016,06,20,04,32,10.60
2016,06,20,04,33,10.60
2016,06,20,04,34,10.60
2016,06,20,04,35,10.70
2016,06,20,04,36,10.70
2016,06,20,04,37,10.70
2016,06,20,04,38,10.70
2016,06,20,04,39,10.70
2016,06,20,04,40,10.70
2016,06,20,04,41,10.80
2016,06,20,04,42,10.80
2016,06,20,04,43,10.80
2016,06,20,04,44,10.80
2016,06,20,04,45,10.80
2016,06,20,04,46,10.80
2016,06,20,04,47,10.80
2016,06,20,04,48,10.80
2016,06,20,04,49,10.80
2016,06,20,04,50,10.80
2016,06,20,04,51,10.80
2016,06,20,04,52,10.80
2016,06,20,04,53,10.80
2016,06,20,04,54,10.80
2016,06,20,04,55,10.80
2016,06,20,04,56,10.80
2016,06,20,04,57,10.80
2016,06,20,04,58,10.80
2016,06,20,04,59,10.80
2016,06,20,05,00,10.80
2016,06,20,05,01,10.80
2016,06,20,05,02,10.80
2016,06,20,05,03,10.80
2016,06,20,05,04,10.70
2016,06,20,05,05,10.70
2016,06,20,05,06,10.70
2016,06,20,05,07,10.70
2016,06,20,05,08,10.70
2016,06,20,05,09,10.70
2016,06,20,05,10,10.70
2016,06,20,05,11,10.70
2016,06,20,05,12,10.70
2016,06,20,05,13,10.70
2016,06,20,05,14,10.70
2016,06,20,05,15,10.80
2016,06,20,05,16,10.80
2016,06,20,05,17,10.80
2016,06,20,05,18,10.80
2016,06,20,05,19,10.80
2016,06,20,05,20,10.90
2016,06,20,05,21,10.90
2016,06,20,05,22,10.90
2016,06,20,05,23,10.90
2016,06,20,05,24,10.90
2016,06,20,05,25,10.90
2016,06,20,05,26,10.90
2016,06,20,05,27,11.00
2016,06,20,05,28,11.00
2016,06,20,05,29,11.00
2016,06,20,05,30,11.00
2016,06,20,05,31,11.00
2016,06,20,05,32,11.00
2016,06,20,05,33,11.10
2016,06,20,05,34,11.10
2016,06,20,05,35,11.10
2016,06,20,05,36,11.20
2016,06,20,05,37,11.20
2016,06,20,05,38,11.20
2016,06,20,05,39,11.20
2016,06,20,05,40,11.20
2016,06,20,05,41,11.20
2016,06,20,05,42,11.30
2016,06,20,05,43,11.20
2016,06,20,05,44,11.30
2016,06,20,05,45,11.30
2016,06,20,05,46,11.30
2016,06,20,05,47,11.30
2016,06,20,05,48,11.30
2016,06,20,05,49,11.30
2016,06,20,05,50,11.40
2016,06,20,05,51,11.40
2016,06,20,05,52,11.40
2016,06,20,05,53,11.40
2016,06,20,05,54,11.50
2016,06,20,05,55,11.50
2016,06,20,05,56,11.50
2016,06,20,05,57,11.50
2016,06,20,05,58,11.50
2016,06,20,05,59,11.60
2016,06,20,06,00,11.60
2016,06,20,06,01,11.60
2016,06,20,06,02,11.60
2016,06,20,06,03,11.60
2016,06,20,06,04,11.60
2016,06,20,06,05,11.70
2016,06,20,06,06,11.70
2016,06,20,06,07,11.70
2016,06,20,06,08,11.70
2016,06,20,06,09,11.70
2016,06,20,06,10,11.80
2016,06,20,06,11,11.80
2016,06,20,06,12,11.80
2016,06,20,06,13,11.80
2016,06,20,06,14,11.80
2016,06,20,06,15,11.80
2016,06,20,06,16,11.80
2016,06,20,06,17,11.80
2016,06,20,06,18,11.90
2016,06,20,06,19,11.90
2016,06,20,06,20,11.90
2016,06,20,06,21,11.90
2016,06,20,06,22,11.90
2016,06,20,06,23,12.00
2016,06,20,06,24,12.00
2016,06,20,06,25,12.10
2016,06,20,06,26,12.10
2016,06,20,06,27,12.10
2016,06,20,06,28,12.10
2016,06,20,06,29,12.20
2016,06,20,06,30,12.20
2016,06,20,06,31,12.20
2016,06,20,06,32,12.20
2016,06,20,06,33,12.20
2016,06,20,06,34,12.20
2016,06,20,06,35,12.30
2016,06,20,06,36,12.30
2016,06,20,06,37,12.30
2016,06,20,06,38,12.30
2016,06,20,06,39,12.40
2016,06,20,06,40,12.40
2016,06,20,06,41,12.40
2016,06,20,06,42,12.40
2016,06,20,06,43,12.40
2016,06,20,06,44,12.50
2016,06,20,06,45,12.50
2016,06,20,06,46,12.50
2016,06,20,06,47,12.60
2016,06,20,06,48,12.60
2016,06,20,06,49,12.60
2016,06,20,06,50,12.70
2016,06,20,06,51,12.70
2016,06,20,06,52,12.70
2016,06,20,06,53,12.70
2016,06,20,06,54,12.80
2016,06,20,06,55,12.80
2016,06,20,06,56,12.90
2016,06,20,06,57,12.90
2016,06,20,06,58,12.90
2016,06,20,06,59,13.00
2016,06,20,07,00,13.10
2016,06,20,07,01,13.10
2016,06,20,07,02,13.10
2016,06,20,07,03,13.20
2016,06,20,07,04,13.20
2016,06,20,07,05,13.20
2016,06,20,07,06,13.30
2016,06,20,07,07,13.30
2016,06,20,07,08,13.40
2016,06,20,07,09,13.50
2016,06,20,07,10,13.50
2016,06,20,07,11,13.60
2016,06,20,07,12,13.60
2016,06,20,07,13,13.70
2016,06,20,07,14,13.80
2016,06,20,07,15,13.80
2016,06,20,07,16,13.90
2016,06,20,07,17,13.90
2016,06,20,07,18,13.90
2016,06,20,07,19,13.90
2016,06,20,07,20,14.00
2016,06,20,07,21,14.00
2016,06,20,07,22,14.10
2016,06,20,07,23,14.10
2016,06,20,07,24,14.10
2016,06,20,07,25,14.10
2016,06,20,07,26,14.20
2016,06,20,07,27,14.20
2016,06,20,07,28,14.20
2016,06,20,07,29,14.30
2016,06,20,07,30,14.30
2016,06,20,07,31,14.40
2016,06,20,07,32,14.40
2016,06,20,07,33,14.40
2016,06,20,07,34,14.50
2016,06,20,07,35,14.50
2016,06,20,07,36,14.50
2016,06,20,07,37,14.60
2016,06,20,07,38,14.60
2016,06,20,07,39,14.70
2016,06,20,07,40,14.70
2016,06,20,07,41,14.70
2016,06,20,07,42,14.70
2016,06,20,07,43,14.70
2016,06,20,07,44,14.80
2016,06,20,07,45,14.80
2016,06,20,07,46,14.80
2016,06,20,07,47,14.80
2016,06,20,07,48,14.80
2016,06,20,07,49,14.90
2016,06,20,07,50,14.90
2016,06,20,07,51,14.90
2016,06,20,07,52,14.90
2016,06,20,07,53,14.90
2016,06,20,07,54,14.90
2016,06,20,07,55,15.00
2016,06,20,07,56,15.00
2016,06,20,07,57,15.10
2016,06,20,07,58,15.10
2016,06,20,07,59,15.10
2016,06,20,08,00,15.10
2016,06,20,08,01,15.20
2016,06,20,08,02,15.20
2016,06,20,08,03,15.20
2016,06,20,08,04,15.20
2016,06,20,08,05,15.20
2016,06,20,08,06,15.20
2016,06,20,08,07,15.30
2016,06,20,08,08,15.30
2016,06,20,08,09,15.40
2016,06,20,08,10,15.40
2016,06,20,08,11,15.50
2016,06,20,08,12,15.50
2016,06,20,08,13,15.50
2016,06,20,08,14,15.60
2016,06,20,08,15,15.60
2016,06,20,08,16,15.70
2016,06,20,08,17,15.70
2016,06,20,08,18,15.70
2016,06,20,08,19,15.70
2016,06,20,08,20,15.80
2016,06,20,08,21,15.80
2016,06,20,08,22,15.80
2016,06,20,08,23,15.80
2016,06,20,08,24,15.80
2016,06,20,08,25,15.90
2016,06,20,08,26,15.90
2016,06,20,08,27,15.90
2016,06,20,08,28,15.90
2016,06,20,08,29,16.00
2016,06,20,08,30,16.00
2016,06,20,08,31,16.10
2016,06,20,08,32,16.20
2016,06,20,08,33,16.30
2016,06,20,08,34,16.30
2016,06,20,08,35,16.40
2016,06,20,08,36,16.50
2016,06,20,08,37,16.60
2016,06,20,08,38,16.60
2016,06,20,08,39,16.70
2016,06,20,08,40,16.70
2016,06,20,08,41,16.80
2016,06,20,08,42,16.80
2016,06,20,08,43,16.90
2016,06,20,08,44,17.00
2016,06,20,08,45,17.00
2016,06,20,08,46,17.10
2016,06,20,08,47,17.10
2016,06,20,08,48,17.20
2016,06,20,08,49,17.20
2016,06,20,08,50,17.30
2016,06,20,08,51,17.30
2016,06,20,08,52,17.30
2016,06,20,08,53,17.30
2016,06,20,08,54,17.40
2016,06,20,08,55,17.40
2016,06,20,08,56,17.50
2016,06,20,08,57,17.60
2016,06,20,08,58,17.60
2016,06,20,08,59,17.70
2016,06,20,09,00,17.70
2016,06,20,09,01,17.70
2016,06,20,09,02,17.80
2016,06,20,09,03,17.80
2016,06,20,09,04,17.80
2016,06,20,09,05,17.90
2016,06,20,09,06,18.00
2016,06,20,09,07,18.00
2016,06,20,09,08,18.10
2016,06,20,09,09,18.20
2016,06,20,09,10,18.20
2016,06,20,09,11,18.30
2016,06,20,09,12,18.30
2016,06,20,09,13,18.30
2016,06,20,09,14,18.30
2016,06,20,09,15,18.40
2016,06,20,09,16,18.30
2016,06,20,09,17,18.30
2016,06,20,09,18,18.30
2016,06,20,09,19,18.30
2016,06,20,09,20,18.30
2016,06,20,09,21,18.20
2016,06,20,09,22,18.20
2016,06,20,09,23,18.20
2016,06,20,09,24,18.30
2016,06,20,09,25,18.30
2016,06,20,09,26,18.30
2016,06,20,09,27,18.30
2016,06,20,09,28,18.30
2016,06,20,09,29,18.30
2016,06,20,09,30,18.30
2016,06,20,09,31,18.30
2016,06,20,09,32,18.30
2016,06,20,09,33,18.30
2016,06,20,09,34,18.30
2016,06,20,09,35,18.30
2016,06,20,09,36,18.30
2016,06,20,09,37,18.30
2016,06,20,09,38,18.30
2016,06,20,09,39,18.30
2016,06,20,09,40,18.30
2016,06,20,09,41,18.30
2016,06,20,09,42,18.40
2016,06,20,09,43,18.50
2016,06,20,09,44,18.50
2016,06,20,09,45,18.60
2016,06,20,09,46,18.60
2016,06,20,09,47,18.70
2016,06,20,09,48,18.70
2016,06,20,09,49,18.70
2016,06,20,09,50,18.70
2016,06,20,09,51,18.80
2016,06,20,09,52,18.80
2016,06,20,09,53,18.80
2016,06,20,09,54,18.90
2016,06,20,09,55,18.90
2016,06,20,09,56,18.90
2016,06,20,09,57,18.90
2016,06,20,09,58,19.00
2016,06,20,09,59,18.90
2016,06,20,10,00,19.00
2016,06,20,10,01,19.10
2016,06,20,10,02,19.20
2016,06,20,10,03,19.20
2016,06,20,10,04,19.20
2016,06,20,10,05,19.20
2016,06,20,10,06,19.20
2016,06,20,10,07,19.20
2016,06,20,10,08,19.30
2016,06,20,10,09,19.30
2016,06,20,10,10,19.30
2016,06,20,10,11,19.40
2016,06,20,10,12,19.40
2016,06,20,10,13,19.50
2016,06,20,10,14,19.60
2016,06,20,10,15,19.70
2016,06,20,10,16,19.70
2016,06,20,10,17,19.80
2016,06,20,10,18,19.80
2016,06,20,10,19,19.90
2016,06,20,10,20,19.90
2016,06,20,10,21,19.90
2016,06,20,10,22,19.90
2016,06,20,10,23,20.00
2016,06,20,10,24,20.10
2016,06,20,10,25,20.20
2016,06,20,10,26,20.30
2016,06,20,10,27,20.30
2016,06,20,10,28,20.30
2016,06,20,10,29,20.30
2016,06,20,10,30,20.30
2016,06,20,10,31,20.30
2016,06,20,10,32,20.30
2016,06,20,10,33,20.30
2016,06,20,10,34,20.20
2016,06,20,10,35,20.20
2016,06,20,10,36,20.20
2016,06,20,10,37,20.20
2016,06,20,10,38,20.30
2016,06,20,10,39,20.40
2016,06,20,10,40,20.50
2016,06,20,10,41,20.50
2016,06,20,10,42,20.60
2016,06,20,10,43,20.60
2016,06,20,10,44,20.60
2016,06,20,10,45,20.60
2016,06,20,10,46,20.60
2016,06,20,10,47,20.70
2016,06,20,10,48,20.70
2016,06,20,10,49,20.80
2016,06,20,10,50,20.80
2016,06,20,10,51,20.90
2016,06,20,10,52,21.00
2016,06,20,10,53,21.10
2016,06,20,10,54,21.20
2016,06,20,10,55,21.20
2016,06,20,10,56,21.30
2016,06,20,10,57,21.30
2016,06,20,10,58,21.30
2016,06,20,10,59,21.30
2016,06,20,11,00,21.40
2016,06,20,11,01,21.40
2016,06,20,11,02,21.40
2016,06,20,11,03,21.40
2016,06,20,11,04,21.40
2016,06,20,11,05,21.40
2016,06,20,11,06,21.40
2016,06,20,11,07,21.40
2016,06,20,11,08,21.30
2016,06,20,11,09,21.30
2016,06,20,11,10,21.30
2016,06,20,11,11,21.30
2016,06,20,11,12,21.20
2016,06,20,11,13,21.20
2016,06,20,11,14,21.20
2016,06,20,11,15,21.30
2016,06,20,11,16,21.30
2016,06,20,11,17,21.30
2016,06,20,11,18,21.30
2016,06,20,11,19,21.30
2016,06,20,11,20,21.30
2016,06,20,11,21,21.30
2016,06,20,11,22,21.30
2016,06,20,11,23,21.30
2016,06,20,11,24,21.40
2016,06,20,11,25,21.50
2016,06,20,11,26,21.60
2016,06,20,11,27,21.50
2016,06,20,11,28,21.50
2016,06,20,11,29,21.50
2016,06,20,11,30,21.50
2016,06,20,11,31,21.50
2016,06,20,11,32,21.60
2016,06,20,11,33,21.70
2016,06,20,11,34,21.70
2016,06,20,11,35,21.80
2016,06,20,11,36,21.80
2016,06,20,11,37,21.80
2016,06,20,11,38,21.90
2016,06,20,11,39,21.90
2016,06,20,11,40,21.90
2016,06,20,11,41,21.90
2016,06,20,11,42,21.80
2016,06,20,11,43,21.80
2016,06,20,11,44,21.80
2016,06,20,11,45,21.80
2016,06,20,11,46,21.80
2016,06,20,11,47,21.90
2016,06,20,11,48,21.90
2016,06,20,11,49,21.80
2016,06,20,11,50,21.70
2016,06,20,11,51,21.70
2016,06,20,11,52,21.70
2016,06,20,11,53,21.70
2016,06,20,11,54,21.60
2016,06,20,11,55,21.60
2016,06,20,11,56,21.60
2016,06,20,11,57,21.50
2016,06,20,11,58,21.50
2016,06,20,11,59,21.50
2016,06,20,12,00,21.60
2016,06,20,12,01,21.60
2016,06,20,12,02,21.70
2016,06,20,12,03,21.70
2016,06,20,12,04,21.80
2016,06,20,12,05,21.90
2016,06,20,12,06,22.00
2016,06,20,12,07,22.00
2016,06,20,12,08,22.10
2016,06,20,12,09,22.20
2016,06,20,12,10,22.20
2016,06,20,12,11,22.20
2016,06,20,12,12,22.20
2016,06,20,12,13,22.20
2016,06,20,12,14,22.20
2016,06,20,12,15,22.20
2016,06,20,12,16,22.20
2016,06,20,12,17,22.20
2016,06,20,12,18,22.20
2016,06,20,12,19,22.10
2016,06,20,12,20,22.10
2016,06,20,12,21,22.00
2016,06,20,12,22,21.90
2016,06,20,12,23,22.00
2016,06,20,12,24,22.10
2016,06,20,12,25,22.10
2016,06,20,12,26,22.20
2016,06,20,12,27,22.30
2016,06,20,12,28,22.40
2016,06,20,12,29,22.40
2016,06,20,12,30,22.50
2016,06,20,12,31,22.50
2016,06,20,12,32,22.50
2016,06,20,12,33,22.50
2016,06,20,12,34,22.50
2016,06,20,12,35,22.50
2016,06,20,12,36,22.40
2016,06,20,12,37,22.40
2016,06,20,12,38,22.50
2016,06,20,12,39,22.60
2016,06,20,12,40,22.70
2016,06,20,12,41,22.80
2016,06,20,12,42,22.80
2016,06,20,12,43,22.80
2016,06,20,12,44,22.80
2016,06,20,12,45,22.80
2016,06,20,12,46,22.80
2016,06,20,12,47,22.80
2016,06,20,12,48,22.80
2016,06,20,12,49,22.80
2016,06,20,12,50,22.90
2016,06,20,12,51,22.90
2016,06,20,12,52,22.90
2016,06,20,12,53,22.90
2016,06,20,12,54,22.90
2016,06,20,12,55,22.80
2016,06,20,12,56,22.80
2016,06,20,12,57,22.80
2016,06,20,12,58,22.90
2016,06,20,12,59,22.90
2016,06,20,13,00,22.80
2016,06,20,13,01,22.80
2016,06,20,13,02,22.80
2016,06,20,13,03,22.90
2016,06,20,13,04,23.00
2016,06,20,13,05,22.90
2016,06,20,13,06,22.90
2016,06,20,13,07,22.90
2016,06,20,13,08,23.00
2016,06,20,13,09,23.00
2016,06,20,13,10,23.00
2016,06,20,13,11,23.10
2016,06,20,13,12,23.10
2016,06,20,13,13,23.10
2016,06,20,13,14,23.20
2016,06,20,13,15,23.20
2016,06,20,13,16,23.30
2016,06,20,13,17,23.30
2016,06,20,13,18,23.30
2016,06,20,13,19,23.30
2016,06,20,13,20,23.30
2016,06,20,13,21,23.50
2016,06,20,13,22,23.60
2016,06,20,13,23,23.70
2016,06,20,13,24,23.70
2016,06,20,13,25,23.70
2016,06,20,13,26,23.70
2016,06,20,13,27,23.70
2016,06,20,13,28,23.70
2016,06,20,13,29,23.60
2016,06,20,13,30,23.50
2016,06,20,13,31,23.60
2016,06,20,13,32,23.60
2016,06,20,13,33,23.60
2016,06,20,13,34,23.60
2016,06,20,13,35,23.60
2016,06,20,13,36,23.60
2016,06,20,13,37,23.60
2016,06,20,13,38,23.50
2016,06,20,13,39,23.40
2016,06,20,13,40,23.40
2016,06,20,13,41,23.40
2016,06,20,13,42,23.40
2016,06,20,13,43,23.50
2016,06,20,13,44,23.60
2016,06,20,13,45,23.60
2016,06,20,13,46,23.60
2016,06,20,13,47,23.60
2016,06,20,13,48,23.40
2016,06,20,13,49,23.30
2016,06,20,13,50,23.30
2016,06,20,13,51,23.10
2016,06,20,13,52,23.10
2016,06,20,13,53,23.10
2016,06,20,13,54,23.10
2016,06,20,13,55,23.00
2016,06,20,13,56,23.10
2016,06,20,13,57,23.20
2016,06,20,13,58,23.30
2016,06,20,13,59,23.40
2016,06,20,14,00,23.60
2016,06,20,14,01,23.60
2016,06,20,14,02,23.60
2016,06,20,14,03,23.70
2016,06,20,14,04,23.80
2016,06,20,14,05,23.70
2016,06,20,14,06,23.50
2016,06,20,14,07,23.50
2016,06,20,14,08,23.40
2016,06,20,14,09,23.50
2016,06,20,14,10,23.50
2016,06,20,14,11,23.60
2016,06,20,14,12,23.60
2016,06,20,14,13,23.70
2016,06,20,14,14,23.80
2016,06,20,14,15,23.80
2016,06,20,14,16,23.80
2016,06,20,14,17,23.70
2016,06,20,14,18,23.60
2016,06,20,14,19,23.60
2016,06,20,14,20,23.70
2016,06,20,14,21,23.60
2016,06,20,14,22,23.60
2016,06,20,14,23,23.60
2016,06,20,14,24,23.60
2016,06,20,14,25,23.70
2016,06,20,14,26,23.70
2016,06,20,14,27,23.70
2016,06,20,14,28,23.70
2016,06,20,14,29,23.70
2016,06,20,14,30,23.70
2016,06,20,14,31,23.70
2016,06,20,14,32,23.60
2016,06,20,14,33,23.60
2016,06,20,14,34,23.70
2016,06,20,14,35,23.80
2016,06,20,14,36,23.80
2016,06,20,14,37,23.80
2016,06,20,14,38,23.80
2016,06,20,14,39,23.80
2016,06,20,14,40,23.80
2016,06,20,14,41,23.70
2016,06,20,14,42,23.60
2016,06,20,14,43,23.60
2016,06,20,14,44,23.70
2016,06,20,14,45,23.70
2016,06,20,14,46,23.60
2016,06,20,14,47,23.40
2016,06,20,14,48,23.30
2016,06,20,14,49,23.20
2016,06,20,14,50,23.10
2016,06,20,14,51,23.20
2016,06,20,14,52,23.30
2016,06,20,14,53,23.30
2016,06,20,14,54,23.50
2016,06,20,14,55,23.60
2016,06,20,14,56,23.70
2016,06,20,14,57,23.80
2016,06,20,14,58,23.80
2016,06,20,14,59,23.80
2016,06,20,15,00,23.80
2016,06,20,15,01,23.80
2016,06,20,15,02,23.90
2016,06,20,15,03,23.90
2016,06,20,15,04,23.90
2016,06,20,15,05,23.90
2016,06,20,15,06,23.90
2016,06,20,15,07,23.90
2016,06,20,15,08,24.00
2016,06,20,15,09,24.10
2016,06,20,15,10,24.10
2016,06,20,15,11,24.20
2016,06,20,15,12,24.20
2016,06,20,15,13,24.30
2016,06,20,15,14,24.40
2016,06,20,15,15,24.40
2016,06,20,15,16,24.20
2016,06,20,15,17,24.10
2016,06,20,15,18,23.90
2016,06,20,15,19,23.80
2016,06,20,15,20,23.60
2016,06,20,15,21,23.60
2016,06,20,15,22,23.60
2016,06,20,15,23,23.70
2016,06,20,15,24,23.80
2016,06,20,15,25,23.90
2016,06,20,15,26,23.90
2016,06,20,15,27,23.90
2016,06,20,15,28,23.90
2016,06,20,15,29,23.90
2016,06,20,15,30,24.00
2016,06,20,15,31,24.10
2016,06,20,15,32,24.20
2016,06,20,15,33,24.30
2016,06,20,15,34,24.30
2016,06,20,15,35,24.30
2016,06,20,15,36,24.30
2016,06,20,15,37,24.30
2016,06,20,15,38,24.30
2016,06,20,15,39,24.40
2016,06,20,15,40,24.40
2016,06,20,15,41,24.40
2016,06,20,15,42,24.30
2016,06,20,15,43,24.20
2016,06,20,15,44,24.10
2016,06,20,15,45,24.00
2016,06,20,15,46,23.80
2016,06,20,15,47,23.50
2016,06,20,15,48,23.40
2016,06,20,15,49,23.30
2016,06,20,15,50,23.20
2016,06,20,15,51,23.20
2016,06,20,15,52,23.30
2016,06,20,15,53,23.40
2016,06,20,15,54,23.70
2016,06,20,15,55,23.90
2016,06,20,15,56,24.10
2016,06,20,15,57,24.30
2016,06,20,15,58,24.50
2016,06,20,15,59,24.60
2016,06,20,16,00,24.70
2016,06,20,16,01,24.80
2016,06,20,16,02,24.90
2016,06,20,16,03,24.90
2016,06,20,16,04,25.00
2016,06,20,16,05,25.10
2016,06,20,16,06,25.30
2016,06,20,16,07,25.40
2016,06,20,16,08,25.50
2016,06,20,16,09,25.50
2016,06,20,16,10,25.30
2016,06,20,16,11,25.10
2016,06,20,16,12,25.00
2016,06,20,16,13,24.90
2016,06,20,16,14,24.90
2016,06,20,16,15,24.90
2016,06,20,16,16,25.00
2016,06,20,16,17,25.10
2016,06,20,16,18,25.10
2016,06,20,16,19,25.00
2016,06,20,16,20,25.00
2016,06,20,16,21,25.00
2016,06,20,16,22,25.10
2016,06,20,16,23,25.00
2016,06,20,16,24,24.90
2016,06,20,16,25,24.90
2016,06,20,16,26,24.80
2016,06,20,16,27,24.60
2016,06,20,16,28,24.50
2016,06,20,16,29,24.40
2016,06,20,16,30,24.50
2016,06,20,16,31,24.50
2016,06,20,16,32,24.60
2016,06,20,16,33,24.70
2016,06,20,16,34,24.70
2016,06,20,16,35,24.70
2016,06,20,16,36,24.70
2016,06,20,16,37,24.70
2016,06,20,16,38,24.80
2016,06,20,16,39,24.80
2016,06,20,16,40,24.90
2016,06,20,16,41,24.90
2016,06,20,16,42,25.00
2016,06,20,16,43,25.10
2016,06,20,16,44,25.20
2016,06,20,16,45,25.20
2016,06,20,16,46,25.40
2016,06,20,16,47,25.60
2016,06,20,16,48,25.60
2016,06,20,16,49,25.60
2016,06,20,16,50,25.60
2016,06,20,16,51,25.70
2016,06,20,16,52,25.70
2016,06,20,16,53,25.80
2016,06,20,16,54,25.80
2016,06,20,16,55,25.80
2016,06,20,16,56,25.80
2016,06,20,16,57,25.90
2016,06,20,16,58,25.80
2016,06,20,16,59,25.80
2016,06,20,17,00,25.80
2016,06,20,17,01,25.80
2016,06,20,17,02,25.80
2016,06,20,17,03,25.70
2016,06,20,17,04,25.50
2016,06,20,17,05,25.20
2016,06,20,17,06,25.00
2016,06,20,17,07,25.00
2016,06,20,17,08,25.00
2016,06,20,17,09,25.10
2016,06,20,17,10,25.30
2016,06,20,17,11,25.40
2016,06,20,17,12,25.60
2016,06,20,17,13,25.70
2016,06,20,17,14,26.00
2016,06,20,17,15,26.10
2016,06,20,17,16,26.20
2016,06,20,17,17,26.30
2016,06,20,17,18,26.30
2016,06,20,17,19,26.20
2016,06,20,17,20,25.90
2016,06,20,17,21,25.70
2016,06,20,17,22,25.60
2016,06,20,17,23,25.40
2016,06,20,17,24,25.20
2016,06,20,17,25,24.90
2016,06,20,17,26,24.70
2016,06,20,17,27,24.60
2016,06,20,17,28,24.50
2016,06,20,17,29,24.40
2016,06,20,17,30,24.40
2016,06,20,17,31,24.40